Selinsgrove, PA

4:39 AM EDT on June 26, 2017 (GMT -0400)
Penn Valley

Weather History for KSEG - October, 2012

Change the Weather History Date:

Sunday, October 28, 2012

  Actual Average (KIPT) Record (KIPT)
Temperature  
Mean Temperature 52 °F -  
Max Temperature 57 °F 56 °F 77 °F (1984)
Min Temperature 50 °F 36 °F 19 °F (1936)
Degree Days  
Heating Degree Days 12    
Growing Degree Days 2 (Base 50)    
Moisture  
Dew Point 49 °F    
Average Humidity 86    
Maximum Humidity 97    
Minimum Humidity 77    
Precipitation  
Precipitation 0.18 in - - ()
Sea Level Pressure  
Sea Level Pressure 29.85 in    
Wind  
Wind Speed 6 mph (North)    
Max Wind Speed 16 mph    
Max Gust Speed 22 mph    
Visibility 9 miles    
Events Rain    
Averages and records for this station are not official NWS values.
T = Trace of Precipitation, MM = Missing Value Source: NWS Daily Summary

Daily Weather History Graph

Daily Weather History Graph

Search for Another Location

Airport or City:

Trip Planner

Search our weather history database for the weather conditions in past years. The results will help you decide how hot, cold, wet, or windy it might be!

Date:

Astronomy

Oct. 28, 2012 Rise Set
Actual Time 7:33 AM EDT 6:07 PM EDT
Civil Twilight 7:05 AM EDT 6:36 PM EDT
Nautical Twilight 6:33 AM EDT 7:08 PM EDT
Astronomical Twilight 6:01 AM EDT 7:40 PM EDT
Moon 5:24 PM EDT (10/28) 6:24 AM EDT (10/28)
Length of Visible Light 11h 30m
Length of Day
10h 34m
Waxing Gibbous, 99% of the Moon is Illuminated
Oct 28
Waxing Gibbous
Oct 29
Full
Nov 6
Last Quarter
Nov 13
New
Nov 20
First Quarter

Hourly Weather History & Observations

Time (EDT) Temp. Dew Point Humidity Pressure Visibility Wind Dir Wind Speed Gust Speed Precip Events Conditions
12:53 AM 52.0 °F 51.1 °F 97% 29.93 in 4.0 mi Calm Calm - N/A   Clear
1:53 AM 53.1 °F 52.0 °F 96% 29.92 in 5.0 mi Calm Calm - N/A   Overcast
2:53 AM 55.0 °F 53.1 °F 93% 29.92 in 5.0 mi Calm Calm - N/A   Overcast
3:53 AM 55.9 °F 54.0 °F 93% 29.91 in 6.0 mi North 9.2 mph - N/A   Overcast
4:20 AM 55.4 °F 51.8 °F 88% 29.91 in 9.0 mi North 12.7 mph - N/A   Mostly Cloudy
4:53 AM 55.0 °F 50.0 °F 83% 29.91 in 10.0 mi North 8.1 mph - N/A   Partly Cloudy
5:53 AM 54.0 °F 48.9 °F 83% 29.92 in 10.0 mi North 9.2 mph 17.3 mph N/A   Overcast
6:53 AM 53.1 °F 48.0 °F 83% 29.91 in 10.0 mi NNE 8.1 mph - N/A   Mostly Cloudy
7:53 AM 53.1 °F 48.0 °F 83% 29.89 in 10.0 mi NNE 9.2 mph - 0.00 in   Mostly Cloudy
8:53 AM 53.1 °F 48.0 °F 83% 29.90 in 10.0 mi North 6.9 mph - 0.00 in Rain Light Rain
9:53 AM 53.1 °F 48.0 °F 83% 29.91 in 9.0 mi North 6.9 mph - 0.00 in Rain Light Rain
10:23 AM 51.8 °F 48.2 °F 88% 29.91 in 5.0 mi NNE 5.8 mph - 0.01 in Rain Light Rain
10:46 AM 51.8 °F 48.2 °F 88% 29.90 in 6.0 mi North 5.8 mph - 0.02 in Rain Light Rain
10:53 AM 53.1 °F 48.9 °F 86% 29.90 in 8.0 mi NNE 5.8 mph - 0.02 in Rain Light Rain
11:53 AM 53.1 °F 50.0 °F 89% 29.87 in 10.0 mi North 6.9 mph - 0.01 in   Overcast
12:00 PM 53.6 °F 48.2 °F 82% 29.87 in 10.0 mi NNE 9.2 mph - N/A   Overcast
12:35 PM 53.6 °F 50.0 °F 88% 29.85 in 10.0 mi North 9.2 mph - N/A   Overcast
12:53 PM 53.1 °F 48.9 °F 86% 29.85 in 10.0 mi North 9.2 mph - N/A   Overcast
1:53 PM 54.0 °F 48.0 °F 80% 29.82 in 10.0 mi NNE 8.1 mph 18.4 mph N/A   Clear
2:53 PM 54.0 °F 48.0 °F 80% 29.77 in 10.0 mi North 16.1 mph 21.9 mph N/A   Scattered Clouds
3:53 PM 55.0 °F 48.9 °F 80% 29.78 in 10.0 mi North 10.4 mph - N/A   Mostly Cloudy
4:53 PM 55.0 °F 48.0 °F 77% 29.80 in 10.0 mi North 9.2 mph - N/A   Overcast
5:53 PM 53.1 °F 48.0 °F 83% 29.79 in 7.0 mi North 12.7 mph - 0.00 in Rain Light Rain
6:53 PM 52.0 °F 48.0 °F 86% 29.79 in 10.0 mi North 12.7 mph - 0.02 in Rain Light Rain
7:53 PM 51.1 °F 48.0 °F 89% 29.78 in 8.0 mi NNE 9.2 mph - 0.03 in Rain Light Rain
8:53 PM 50.0 °F 48.0 °F 93% 29.76 in 10.0 mi North 12.7 mph - 0.02 in Rain Light Rain
9:53 PM 50.0 °F 46.9 °F 89% 29.77 in 6.0 mi North 6.9 mph - 0.04 in Rain Rain
10:53 PM 50.0 °F 46.9 °F 89% 29.75 in 10.0 mi North 10.4 mph - 0.04 in   Overcast
11:53 PM 50.0 °F 46.0 °F 86% 29.73 in 10.0 mi North 8.1 mph - N/A   Overcast